Address 0x3fe7aa0bbcb7859f29c283f464b170e321f05b2b 11

Txn Hash Method
Block
From
To
Value [Txn Fee]
0x3ec337cdc36962b3073b6f71763390a4658bfca00bd63c3f92c1d48e3e883ca40x6549920d139713622022-09-26 3:24:291 day 22 hrs ago0x3fe7aa0bbcb7859f29c283f464b170e321f05b2bOUT0x2e1d0c56c6913fd6135f887080f7a14123a142a80 AVAX0.064629100
0x1c6778fa3d4258416b666235879c36a1980c7daaa7347dc282027297860326930xbef1e500139697942022-09-26 2:56:191 day 23 hrs ago0x3fe7aa0bbcb7859f29c283f464b170e321f05b2bOUT0x2e1d0c56c6913fd6135f887080f7a14123a142a80 AVAX0.026724100
0xdcc537ad0a335e21a86afa76f9c13db00ce967f4a6a9c41f569ffceca6aa22880x6549920d139689922022-09-26 2:42:141 day 23 hrs ago0x3fe7aa0bbcb7859f29c283f464b170e321f05b2bOUT0x2e1d0c56c6913fd6135f887080f7a14123a142a80 AVAX0.0638322100
0xc03e838bb653144087e92a1fd1e30f418acd2120b7f64d0a399b8cbd99ae54a40xbef1e500139676452022-09-26 2:18:392 days 4 mins ago0x3fe7aa0bbcb7859f29c283f464b170e321f05b2bOUT0x2e1d0c56c6913fd6135f887080f7a14123a142a80 AVAX0.026724100
0xcb1105e416a9e64b106e2f37b6430ccd8bd5c414afa85e4fff758dd9e32825db0x6549920d139665062022-09-26 1:58:512 days 24 mins ago0x3fe7aa0bbcb7859f29c283f464b170e321f05b2bOUT0x2e1d0c56c6913fd6135f887080f7a14123a142a80 AVAX0.0649219100
0xcc26b229ce5562a0d6aeb569e33b163e88ead73077358a9a1afd177bc22ad51e0xbef1e500139654492022-09-26 1:40:322 days 42 mins ago0x3fe7aa0bbcb7859f29c283f464b170e321f05b2bOUT0x2e1d0c56c6913fd6135f887080f7a14123a142a80 AVAX0.028434100
0x6c99f645c7cde2ea137d3283ae4dbe7558cf4439756a006a166056b1c1a8e07c0x6549920d139640402022-09-26 1:15:472 days 1 hr ago0x3fe7aa0bbcb7859f29c283f464b170e321f05b2bOUT0x2e1d0c56c6913fd6135f887080f7a14123a142a80 AVAX0.066339100
0x49f1f251b7069ea0e649351ee334853fbdfa8ccfa685c6060ad7267c4556d8e10x6549920d139617822022-09-26 0:33:182 days 1 hr ago0x3fe7aa0bbcb7859f29c283f464b170e321f05b2bOUT0x2e1d0c56c6913fd6135f887080f7a14123a142a80 AVAX0.0655422100
0xf32840df170d9f719b662373df4dcc778343bc9b35201cecf7a59a4d87a939530x6549920d139595072022-09-25 23:51:552 days 2 hrs ago0x3fe7aa0bbcb7859f29c283f464b170e321f05b2bOUT0x2e1d0c56c6913fd6135f887080f7a14123a142a80 AVAX0.0649219100
0x3c6966d103f0a0c1077ba0ef68b9c546b2e8d8e40253332ac928fb6e4062051b0x6549920d139572082022-09-25 23:08:512 days 3 hrs ago0x3fe7aa0bbcb7859f29c283f464b170e321f05b2bOUT0x2e1d0c56c6913fd6135f887080f7a14123a142a80 AVAX0.068049100
0xa73889cbc20fd3226dc6444af96f0179e8a06612e2dd5fb0a9b4a950d31e1e6f0x6549920d139549002022-09-25 22:25:482 days 3 hrs ago0x3fe7aa0bbcb7859f29c283f464b170e321f05b2bOUT0x2e1d0c56c6913fd6135f887080f7a14123a142a80 AVAX0.0655422100
0xa4a07f1d00fa4cd2b18bdbd4a4d24114c5c038545ede45094852f72d7ddd071f0x6549920d139525802022-09-25 21:42:582 days 4 hrs ago0x3fe7aa0bbcb7859f29c283f464b170e321f05b2bOUT0x2e1d0c56c6913fd6135f887080f7a14123a142a80 AVAX0.0649219100
0x2a43f24eff09356a21cb4f9e20fe4259f467ed8f9ea03b6628ce94e1cbb966870x6549920d139502612022-09-25 20:59:332 days 5 hrs ago0x3fe7aa0bbcb7859f29c283f464b170e321f05b2bOUT0x2e1d0c56c6913fd6135f887080f7a14123a142a80 AVAX0.068049100
0x960705f0c6de0bc327e3dd345697f8f343fb997a61cbdc903cda9f1c01b8fff50x6549920d139478792022-09-25 20:14:452 days 6 hrs ago0x3fe7aa0bbcb7859f29c283f464b170e321f05b2bOUT0x2e1d0c56c6913fd6135f887080f7a14123a142a80 AVAX0.0655422100
0xcc8c18a73c35e73f70201b15bf956503b37ea4e23578006ea500426a2aa8e979Harvest139463982022-09-25 19:47:012 days 6 hrs ago0x3fe7aa0bbcb7859f29c283f464b170e321f05b2bOUT0x951accccfdf619d3cd8cfe0e4823d8e80354eb410 AVAX0.00647100
0x601a680d004a940dffa7749d42d65259838564f03a16de6c785e19cb7c8d61750x6549920d139455362022-09-25 19:31:062 days 6 hrs ago0x3fe7aa0bbcb7859f29c283f464b170e321f05b2bOUT0x2e1d0c56c6913fd6135f887080f7a14123a142a80 AVAX0.0649219100
0xf35b7caf135804f172b769d6e35f302971777190040d307c7a33af03223253b3Harvest139442112022-09-25 19:06:262 days 7 hrs ago0x3fe7aa0bbcb7859f29c283f464b170e321f05b2bOUT0x951accccfdf619d3cd8cfe0e4823d8e80354eb410 AVAX0.0081923100
0xcd63301e0719fe7a12e1a589c813c3e1988c61686db6eae9cadb58dd9d2535500x6549920d139431182022-09-25 18:44:592 days 7 hrs ago0x3fe7aa0bbcb7859f29c283f464b170e321f05b2bOUT0x2e1d0c56c6913fd6135f887080f7a14123a142a80 AVAX0.068049100
0x4160f81e8b6eba51710b41e8e213009e101ee143c7ab8b7ca73c505ae79afb62Harvest139419992022-09-25 18:23:582 days 7 hrs ago0x3fe7aa0bbcb7859f29c283f464b170e321f05b2bOUT0x951accccfdf619d3cd8cfe0e4823d8e80354eb410 AVAX0.0081923100
0x45e22023ef009be44b40555a776bf73212c450d8fe6a93ab0daef60767fb07110x6549920d139407342022-09-25 17:58:522 days 8 hrs ago0x3fe7aa0bbcb7859f29c283f464b170e321f05b2bOUT0x2e1d0c56c6913fd6135f887080f7a14123a142a80 AVAX0.0672522100
0xd63b3bad7627f44c9a87080af24605a952813d4795f4bb89ff190b0d8c2090a9Harvest139397992022-09-25 17:40:212 days 8 hrs ago0x3fe7aa0bbcb7859f29c283f464b170e321f05b2bOUT0x951accccfdf619d3cd8cfe0e4823d8e80354eb410 AVAX0.00647100
0xd670a4d03d250efd246ed5338c8085a63883287e2f0c89ebafc9ef067d2abf520x6549920d139382812022-09-25 17:10:552 days 9 hrs ago0x3fe7aa0bbcb7859f29c283f464b170e321f05b2bOUT0x2e1d0c56c6913fd6135f887080f7a14123a142a80 AVAX0.0666319100
0x6ca7532a5d31bd54054eb2dacb7786808a2a3806d1a9398317ee9fb7b09694f3Harvest139374932022-09-25 16:55:122 days 9 hrs ago0x3fe7aa0bbcb7859f29c283f464b170e321f05b2bOUT0x951accccfdf619d3cd8cfe0e4823d8e80354eb410 AVAX0.0081923100
0xfb167cc0781969d1cbbc68f6733cbe2435d1c80b14d487e395782a5fe533df950x4ea4c6b3139363422022-09-25 16:24:532 days 9 hrs ago0x3fe7aa0bbcb7859f29c283f464b170e321f05b2bOUT0x2e1d0c56c6913fd6135f887080f7a14123a142a80 AVAX0.022738100
0xe0aaa5810cef52a76392684a2ededacfaa262ab9a1d9a2cdac3f26ecfb03194f0xab07211e139358152022-09-25 16:07:202 days 10 hrs ago0x3fe7aa0bbcb7859f29c283f464b170e321f05b2bOUT0x2e1d0c56c6913fd6135f887080f7a14123a142a80 AVAX0.0210672100
[ Download CSV Export 
Parent Txn Hash Block From To Value
Loading

Contract Name:
0

Compiler Version
0

Optimization Enabled:
0

Other Settings:
-NA-
Block Transaction Gas Used Reward
Age Block Fee Address BC Fee Address Voting Power Jailed Incoming
Block Uncle Number Difficulty Gas Used Reward
Loading